| time (UTC) | temp F | wind direction | speed MPH | gust MPH | rain 1hr in | rain 24hr in | rain mn in | humidity % | barometer mb |
| 20260503232130 | 60 | 0.0 | 0.0 | 0.00 | 0.00 | 0.00 | 32 | 1014.8 | |
| 20260503231155 | 60 | 0.0 | 0.0 | 0.00 | 0.00 | 0.00 | 32 | 1014.7 | |
| 20260503230220 | 60 | 0.0 | 0.0 | 0.00 | 0.00 | 0.00 | 32 | 1014.8 | |
| 20260503225245 | 60 | 0.0 | 0.0 | 0.00 | 0.00 | 0.00 | 32 | 1015.2 | |
| 20260503224311 | 60 | 0.0 | 0.0 | 0.00 | 0.00 | 0.00 | 32 | 1015.1 | |
| 20260503223336 | 60 | 0.0 | 0.0 | 0.00 | 0.00 | 0.00 | 32 | 1015.2 | |
| 20260503222401 | 61 | 0.0 | 0.0 | 0.00 | 0.00 | 0.00 | 32 | 1015.3 | |
| 20260503221426 | 61 | 0.0 | 0.0 | 0.00 | 0.00 | 0.00 | 32 | 1015.4 | |
| 20260503220451 | 61 | 0.0 | 0.0 | 0.00 | 0.00 | 0.00 | 32 | 1015.6 | |
| 20260503215516 | 61 | 0.0 | 0.0 | 0.00 | 0.00 | 0.00 | 32 | 1015.5 | |
| 20260503214541 | 61 | 0.0 | 0.0 | 0.00 | 0.00 | 0.00 | 32 | 1015.6 | |
| 20260503213606 | 62 | 0.0 | 0.0 | 0.00 | 0.00 | 0.00 | 31 | 1015.6 | |
| 20260503212631 | 62 | 0.0 | 0.0 | 0.00 | 0.00 | 0.00 | 32 | 1015.6 | |
| 20260503211657 | 62 | 0.0 | 0.0 | 0.00 | 0.00 | 0.00 | 31 | 1015.7 | |
| 20260503210722 | 62 | 0.0 | 0.0 | 0.00 | 0.00 | 0.00 | 31 | 1015.6 | |
| 20260503205747 | 62 | 0.0 | 0.0 | 0.00 | 0.00 | 0.00 | 31 | 1015.6 | |
| 20260503204812 | 63 | 0.0 | 0.0 | 0.00 | 0.00 | 0.00 | 31 | 1015.7 | |
| 20260503203837 | 63 | 0.0 | 0.0 | 0.00 | 0.00 | 0.00 | 31 | 1015.9 | |
| 20260503202902 | 63 | 0.0 | 0.0 | 0.00 | 0.00 | 0.00 | 31 | 1016.0 | |
| 20260503201927 | 63 | 0.0 | 0.0 | 0.00 | 0.00 | 0.00 | 31 | 1015.9 | |
| 20260503200952 | 63 | 0.0 | 0.0 | 0.00 | 0.00 | 0.00 | 31 | 1015.9 | |
| 20260503200018 | 64 | 0.0 | 0.0 | 0.00 | 0.00 | 0.00 | 31 | 1016.0 | |
| 20260503195043 | 64 | 0.0 | 0.0 | 0.00 | 0.00 | 0.00 | 31 | 1016.0 | |
| 20260503194108 | 64 | 0.0 | 0.0 | 0.00 | 0.00 | 0.00 | 31 | 1016.1 | |
| 20260503193133 | 64 | 0.0 | 0.0 | 0.00 | 0.00 | 0.00 | 31 | 1016.3 | |
| 20260503192158 | 65 | 0.0 | 0.0 | 0.00 | 0.00 | 0.00 | 31 | 1016.2 | |
| 20260503191223 | 65 | 0.0 | 0.0 | 0.00 | 0.00 | 0.00 | 31 | 1016.0 | |
| 20260503190248 | 65 | 0.0 | 0.0 | 0.00 | 0.00 | 0.00 | 31 | 1016.1 | |
| 20260503185313 | 66 | 0.0 | 0.0 | 0.00 | 0.00 | 0.00 | 31 | 1016.2 | |
| 20260503184339 | 66 | 0.0 | 0.0 | 0.00 | 0.00 | 0.00 | 31 | 1016.1 | |
| 20260503183404 | 67 | 0.0 | 0.0 | 0.00 | 0.00 | 0.00 | 31 | 1016.2 | |
| 20260503182429 | 67 | 0.0 | 0.0 | 0.00 | 0.00 | 0.00 | 31 | 1016.2 | |
| 20260503181454 | 68 | 0.0 | 0.0 | 0.00 | 0.00 | 0.00 | 31 | 1016.0 | |
| 20260503180519 | 68 | 0.0 | 0.0 | 0.00 | 0.00 | 0.00 | 31 | 1016.2 | |
| 20260503175544 | 69 | 0.0 | 0.0 | 0.00 | 0.00 | 0.00 | 30 | 1016.0 | |
| 20260503174609 | 69 | 0.0 | 0.0 | 0.00 | 0.00 | 0.00 | 30 | 1016.1 | |
| 20260503173635 | 70 | 0.0 | 0.0 | 0.00 | 0.00 | 0.00 | 30 | 1016.1 | |
| 20260503172700 | 71 | 0.0 | 0.0 | 0.00 | 0.00 | 0.00 | 30 | 1016.0 | |
| 20260503171725 | 71 | 0.0 | 0.0 | 0.00 | 0.00 | 0.00 | 30 | 1016.1 | |
| 20260503170750 | 72 | 0.0 | 0.0 | 0.00 | 0.00 | 0.00 | 30 | 1016.1 | |
| 20260503150317 | 74 | 0.0 | 0.0 | 0.00 | 0.00 | 0.00 | 30 | 1016.8 | |
| 20260503130818 | 73 | 0.0 | 0.0 | 0.00 | 0.00 | 0.00 | 31 | 1017.8 | |
| 20260503120114 | 71 | 0.0 | 0.0 | 0.00 | 0.00 | 0.00 | 31 | 1018.7 | |
| 20260503110345 | 68 | 0.0 | 0.0 | 0.00 | 0.00 | 0.00 | 32 | 1019.3 | |
| 20260503081117 | 63 | 0.0 | 0.0 | 0.00 | 0.00 | 0.00 | 33 | 1019.5 | |
| 20260503080142 | 62 | 0.0 | 0.0 | 0.00 | 0.00 | 0.00 | 33 | 1019.4 | |
| 20260503072323 | 60 | 0.0 | 0.0 | 0.00 | 0.00 | 0.00 | 34 | 1019.3 | |
| 20260503071348 | 60 | 0.0 | 0.0 | 0.00 | 0.00 | 0.00 | 34 | 1019.2 | |
| 20260503070413 | 59 | 0.0 | 0.0 | 0.00 | 0.00 | 0.00 | 34 | 1019.3 | |
| 20260503054734 | 56 | 0.0 | 0.0 | 0.00 | 0.00 | 0.00 | 34 | 1018.9 | |
| 20260503053759 | 55 | 0.0 | 0.0 | 0.00 | 0.00 | 0.00 | 34 | 1018.9 | |
| 20260503052824 | 55 | 0.0 | 0.0 | 0.00 | 0.00 | 0.00 | 34 | 1019.0 | |
| 20260503051849 | 55 | 0.0 | 0.0 | 0.00 | 0.00 | 0.00 | 34 | 1018.9 | |
| 20260503050914 | 55 | 0.0 | 0.0 | 0.00 | 0.00 | 0.00 | 34 | 1018.9 | |
| 20260503045940 | 55 | 0.0 | 0.0 | 0.00 | 0.00 | 0.00 | 34 | 1019.0 | |
| 20260503045005 | 55 | 0.0 | 0.0 | 0.00 | 0.00 | 0.00 | 34 | 1019.0 | |
| 20260503044030 | 55 | 0.0 | 0.0 | 0.00 | 0.00 | 0.00 | 34 | 1019.0 | |
| 20260503043055 | 55 | 0.0 | 0.0 | 0.00 | 0.00 | 0.00 | 34 | 1019.0 | |
| 20260503042120 | 54 | 0.0 | 0.0 | 0.00 | 0.00 | 0.00 | 34 | 1019.0 | |
| 20260503041145 | 54 | 0.0 | 0.0 | 0.00 | 0.00 | 0.00 | 34 | 1018.8 | |
| 20260503040210 | 54 | 0.0 | 0.0 | 0.00 | 0.00 | 0.00 | 34 | 1018.7 | |
| 20260503035235 | 54 | 0.0 | 0.0 | 0.00 | 0.00 | 0.00 | 34 | 1018.9 | |
| 20260503034300 | 54 | 0.0 | 0.0 | 0.00 | 0.00 | 0.00 | 34 | 1018.9 | |
| 20260503033326 | 54 | 0.0 | 0.0 | 0.00 | 0.00 | 0.00 | 34 | 1018.8 | |
| 20260503032351 | 54 | 0.0 | 0.0 | 0.00 | 0.00 | 0.00 | 33 | 1018.9 | |
| 20260503031416 | 54 | 0.0 | 0.0 | 0.00 | 0.00 | 0.00 | 33 | 1019.0 | |
| 20260503030441 | 54 | 0.0 | 0.0 | 0.00 | 0.00 | 0.00 | 33 | 1018.8 | |
| 20260503025506 | 55 | 0.0 | 0.0 | 0.00 | 0.00 | 0.00 | 33 | 1018.9 | |
| 20260503024531 | 54 | 0.0 | 0.0 | 0.00 | 0.00 | 0.00 | 33 | 1018.8 | |
| 20260503023556 | 55 | 0.0 | 0.0 | 0.00 | 0.00 | 0.00 | 33 | 1018.8 | |
| 20260503022622 | 55 | 0.0 | 0.0 | 0.00 | 0.00 | 0.00 | 32 | 1018.8 | |
| 20260503021647 | 55 | 0.0 | 0.0 | 0.00 | 0.00 | 0.00 | 32 | 1018.8 | |
| 20260503020712 | 56 | 0.0 | 0.0 | 0.00 | 0.00 | 0.00 | 32 | 1018.9 | |
| 20260503015737 | 56 | 0.0 | 0.0 | 0.00 | 0.00 | 0.00 | 31 | 1019.0 | |
| 20260503014802 | 57 | 0.0 | 0.0 | 0.00 | 0.00 | 0.00 | 31 | 1019.0 | |
| 20260503013827 | 58 | 0.0 | 0.0 | 0.00 | 0.00 | 0.00 | 31 | 1019.0 | |
| 20260503012852 | 59 | 0.0 | 0.0 | 0.00 | 0.00 | 0.00 | 30 | 1019.1 | |
| 20260503011917 | 60 | 0.0 | 0.0 | 0.00 | 0.00 | 0.00 | 30 | 1019.0 | |
| 20260503010943 | 61 | 0.0 | 0.0 | 0.00 | 0.00 | 0.00 | 30 | 1019.0 | |
| 20260503010008 | 63 | 0.0 | 0.0 | 0.00 | 0.00 | 0.00 | 29 | 1019.1 | |
| 20260503005033 | 64 | 0.0 | 0.0 | 0.00 | 0.00 | 0.00 | 29 | 1019.3 | |
| 20260503004058 | 64 | 0.0 | 0.0 | 0.00 | 0.00 | 0.00 | 30 | 1019.1 | |
| 20260503003123 | 64 | 0.0 | 0.0 | 0.00 | 0.00 | 0.00 | 29 | 1019.3 | |
| 20260503002148 | 64 | 0.0 | 0.0 | 0.00 | 0.00 | 0.00 | 29 | 1019.4 | |
| 20260503001213 | 65 | 0.0 | 0.0 | 0.00 | 0.00 | 0.00 | 30 | 1019.3 | |
| 20260503000240 | 64 | 0.0 | 0.0 | 0.00 | 0.00 | 0.00 | 29 | 1019.3 | |
| 20260502235305 | 64 | 0.0 | 0.0 | 0.00 | 0.00 | 0.00 | 30 | 1019.4 | |
| 20260502234329 | 64 | 0.0 | 0.0 | 0.00 | 0.00 | 0.00 | 30 | 1019.5 | |
| 20260502233354 | 64 | 0.0 | 0.0 | 0.00 | 0.00 | 0.00 | 29 | 1019.5 | |
| 20260502232419 | 65 | 0.0 | 0.0 | 0.00 | 0.00 | 0.00 | 30 | 1019.5 |